TimeAKST,TemperatureF,Dew PointF,Humidity,Sea Level PressureIn,VisibilityMPH,Wind Direction,Wind SpeedMPH,Gust SpeedMPH,PrecipitationIn,Events,Conditions,WindDirDegrees,DateUTC
12:53 AM,-31.0,-9999,N/A,29.93,10.0,Calm,Calm,-,N/A,,Clear,0,2012-11-20 09:53:00
1:53 AM,-32.1,-9999,N/A,29.93,10.0,NNW,3.5,-,N/A,,Clear,330,2012-11-20 10:53:00
3:53 AM,-32.1,-9999,N/A,29.97,10.0,Calm,Calm,-,N/A,,Clear,0,2012-11-20 12:53:00
4:53 AM,-32.1,-9999,N/A,29.99,10.0,Calm,Calm,-,N/A,,Clear,0,2012-11-20 13:53:00
5:53 AM,-32.1,-9999,N/A,30.00,10.0,ENE,3.5,-,N/A,,Clear,70,2012-11-20 14:53:00
6:53 AM,-32.1,-9999,N/A,30.02,10.0,Calm,Calm,-,N/A,,Clear,0,2012-11-20 15:53:00
7:53 AM,-32.1,-9999,N/A,30.04,10.0,Calm,Calm,-,N/A,,Scattered Clouds,0,2012-11-20 16:53:00
8:53 AM,-33.0,-9999,N/A,30.05,10.0,Calm,Calm,-,N/A,,Scattered Clouds,0,2012-11-20 17:53:00
9:53 AM,-31.0,-9999,N/A,30.06,10.0,Calm,Calm,-,N/A,,Scattered Clouds,0,2012-11-20 18:53:00
10:53 AM,-26.0,-33.0,69,30.06,10.0,NNW,3.5,-,N/A,,Scattered Clouds,340,2012-11-20 19:53:00
11:53 AM,-16.1,-23.1,71,30.04,10.0,Calm,Calm,-,N/A,,Scattered Clouds,0,2012-11-20 20:53:00
12:53 PM,-16.1,-20.9,79,30.05,10.0,Calm,Calm,-,N/A,,Scattered Clouds,0,2012-11-20 21:53:00
1:53 PM,-15.0,-20.0,78,30.04,10.0,Calm,Calm,-,N/A,,Scattered Clouds,0,2012-11-20 22:53:00
2:53 PM,-13.0,-20.0,71,30.03,10.0,Calm,Calm,-,N/A,,Scattered Clouds,0,2012-11-20 23:53:00
3:53 PM,-18.0,-23.1,78,30.04,10.0,Calm,Calm,-,N/A,,Scattered Clouds,0,2012-11-21 00:53:00
4:53 PM,-24.0,-29.0,77,30.06,10.0,Calm,Calm,-,N/A,,Scattered Clouds,0,2012-11-21 01:53:00
5:53 PM,-26.0,-31.0,77,30.05,10.0,Calm,Calm,-,N/A,,Partly Cloudy,0,2012-11-21 02:53:00
6:53 PM,-27.0,-32.1,77,30.06,10.0,Calm,Calm,-,N/A,,Clear,0,2012-11-21 03:53:00
7:53 PM,-27.0,-33.0,73,30.06,10.0,Calm,Calm,-,N/A,,Clear,0,2012-11-21 04:53:00
8:53 PM,-27.9,-34.1,73,30.07,10.0,NW,3.5,-,N/A,,Clear,320,2012-11-21 05:53:00
9:29 PM,-27.4,-34.6,69,29.77,10.0,Calm,Calm,-,N/A,,Clear,0,2012-11-21 06:29:00
9:53 PM,-27.9,-34.1,73,30.06,10.0,North,3.5,-,N/A,,Clear,350,2012-11-21 06:53:00
10:53 PM,-29.0,-35.0,73,30.06,10.0,Calm,Calm,-,N/A,,Clear,0,2012-11-21 07:53:00
11:53 PM,-29.0,-35.0,73,30.04,10.0,Calm,Calm,-,N/A,,Clear,0,2012-11-21 08:53:00